EW9766 Weather Reports


Display with metric or nautical units.
time (UTC)temp
F
wind
direction
speed
MPH
gust
MPH
rain 1hr
in
rain 24hr
in
rain mn
in
humidity
%
barometer
mb
20260903164606 50 307 2.0 6.0 0.00 0.33 0.00 91 1012.6
20260903161531 49 292 0.0 5.0 0.00 0.33 0.00 92 1012.6
20260903160105 49 332 0.0 4.0 0.00 0.33 0.00 92 1012.7
20260903154535 49 278 1.0 5.0 0.00 0.33 0.00 92 1012.6
20260903153029 48 196 2.0 5.0 0.00 0.33 0.00 92 1012.5
20260903150035 46 113 2.0 6.0 0.00 0.33 0.00 94 1012.6
20260903144606 46 175 3.0 7.0 0.00 0.33 0.00 95 1012.4
20260903143030 45 145 2.0 5.0 0.00 0.33 0.00 95 1012.3
20260903140044 44 155 4.0 7.0 0.00 0.33 0.00 94 1012.0
20260903134531 44 142 4.0 6.0 0.00 0.33 0.00 94 1012.0
20260903133106 44 133 2.0 6.0 0.00 0.33 0.00 94 1012.0
20260903130034 44 166 1.0 5.0 0.00 0.33 0.00 95 1011.9
20260903124529 44 165 3.0 8.0 0.00 0.33 0.00 95 1011.8
20260903121529 43 177 3.0 9.0 0.00 0.33 0.00 95 1011.8
20260903120034 44 185 5.0 8.0 0.00 0.33 0.00 95 1011.8
20260903114532 43 114 3.0 10.0 0.00 0.33 0.00 95 1011.8
20260903113036 43 145 2.0 4.0 0.00 0.33 0.00 95 1011.9
20260903110032 42 163 4.0 9.0 0.00 0.33 0.00 94 1011.5
20260903104532 42 145 4.0 8.0 0.00 0.33 0.00 94 1011.4
20260903103033 42 160 5.0 8.0 0.00 0.33 0.00 94 1011.3
20260903101530 42 149 3.0 6.0 0.00 0.33 0.00 94 1011.3
20260903100036 42 153 3.0 6.0 0.00 0.33 0.00 94 1011.4
20260903093036 42 179 3.0 8.0 0.00 0.33 0.00 94 1011.3
20260903091532 43 157 4.0 8.0 0.00 0.33 0.00 94 1011.3
20260903090036 42 143 4.0 7.0 0.00 0.33 0.00 93 1011.5
20260903084534 43 148 4.0 6.0 0.00 0.33 0.00 93 1011.5
20260903083036 43 158 4.0 7.0 0.00 0.33 0.00 93 1011.4
20260903081531 42 154 4.0 8.0 0.00 0.33 0.00 93 1011.4
20260903080142 43 156 4.0 6.0 0.00 0.33 0.00 93 1011.3
20260903074537 43 167 3.0 5.0 0.00 0.33 0.00 92 1011.2
20260903073036 43 171 3.0 5.0 0.00 0.33 0.00 92 1011.1
20260903071653 43 339 1.0 6.0 0.00 0.33 0.00 92 1011.1
20260903070035 44 202 0.0 4.0 0.00 0.33 0.00 91 1011.0
20260903063142 45 328 3.0 7.0 0.00 0.33 0.33 90 1011.0
20260903061536 46 167 3.0 6.0 0.00 0.33 0.33 90 1011.0
20260903060036 47 346 2.0 6.0 0.00 0.33 0.33 90 1010.9
20260903054531 48 316 6.0 12.0 0.00 0.33 0.33 90 1010.9
20260903053030 48 359 3.0 8.0 0.00 0.33 0.33 89 1010.9
20260903051537 49 352 3.0 8.0 0.00 0.33 0.33 88 1010.9
20260903050036 49 344 6.0 13.0 0.00 0.33 0.33 89 1010.8
20260903044605 49 16 7.0 15.0 0.00 0.33 0.33 90 1010.6
20260903043031 49 60 5.0 12.0 0.00 0.33 0.33 89 1010.4
20260903041531 49 233 7.0 21.0 0.01 0.33 0.33 91 1010.2
20260903034531 50 263 4.0 14.0 0.02 0.33 0.32 94 1010.0
20260903031536 51 234 3.0 10.0 0.06 0.32 0.31 94 1010.2
20260903030036 51 292 2.0 7.0 0.09 0.31 0.31 94 1010.1
20260903024532 52 349 3.0 6.0 0.11 0.31 0.30 94 1010.1
20260903023030 52 354 3.0 7.0 0.11 0.30 0.26 94 1010.1
20260903021532 53 260 2.0 10.0 0.07 0.26 0.22 94 1010.0
20260903020129 54 308 3.0 8.0 0.05 0.22 0.20 94 1009.5
20260903014531 54 267 1.0 5.0 0.05 0.20 0.19 93 1009.1
20260903013033 53 307 1.0 6.0 0.05 0.19 0.19 93 1009.1
20260903010037 54 301 1.0 4.0 0.07 0.17 0.15 93 1009.3
20260903004536 54 253 2.0 5.0 0.05 0.15 0.14 93 1009.4
20260903003033 54 295 2.0 6.0 0.05 0.14 0.14 92 1009.3
20260902234608 54 8 2.0 5.0 0.02 0.10 0.09 91 1009.3
20260902231535 54 306 2.0 5.0 0.03 0.09 0.08 91 1009.4
20260902230038 54 296 3.0 5.0 0.02 0.08 0.08 91 1009.6
20260902224533 54 298 3.0 7.0 0.03 0.08 0.07 90 1009.4
20260902223032 54 278 2.0 9.0 0.02 0.07 0.06 90 1009.5
20260902221536 54 290 4.0 9.0 0.01 0.06 0.06 89 1009.3
20260902214534 55 294 3.0 10.0 0.02 0.05 0.05 87 1009.0
20260902213033 55 261 3.0 11.0 0.03 0.05 0.05 86 1009.0
20260902211534 55 203 2.0 9.0 0.04 0.05 0.04 86 1008.9
20260902210029 54 147 0.0 4.0 0.04 0.04 0.03 85 1009.0
20260902204533 55 115 2.0 6.0 0.03 0.03 0.02 84 1009.3
20260902203036 55 62 2.0 4.0 0.02 0.02 0.01 83 1009.3
20260902201536 55 186 2.0 6.0 0.01 0.01 0.00 82 1009.5
20260902193033 56 130 4.0 11.0 0.00 0.00 0.00 78 1009.3
20260902191532 56 110 4.0 9.0 0.00 0.00 0.00 74 1009.3
20260902190034 58 127 6.0 15.0 0.00 0.00 0.00 74 1009.5
20260902184648 58 65 2.0 7.0 0.00 0.00 0.00 76 1009.5
20260902183031 58 327 1.0 5.0 0.00 0.00 0.00 76 1009.6
20260902174530 57 302 2.0 8.0 0.00 0.00 0.00 75 1009.5
20260902173108 59 281 3.0 7.0 0.00 0.00 0.00 73 1009.4
20260902171534 59 287 2.0 6.0 0.00 0.00 0.00 72 1009.5